Weather History for Bluefield, WV

Change the Weather History Date:

Saturday, February 23, 2013

  Actual Average Record
Temperature  
Mean Temperature 48 °F 39 °F  
Max Temperature 59 °F 48 °F 74 °F (1975)
Min Temperature 36 °F 31 °F 5 °F (1963)
Degree Days  
Heating Degree Days 17 26  
Month to date heating degree days 682 647  
Since 1 July heating degree days 3258 3367  
Cooling Degree Days 0 0  
Month to date cooling degree days 0 0  
Year to date cooling degree days 1 0  
Moisture  
Dew Point 35 °F    
Average Humidity 68    
Maximum Humidity 92    
Minimum Humidity 43    
Precipitation  
Precipitation 0.01 in 0.10 in 0.63 in (1998)
Month to date precipitation 1.27 2.24  
Year to date precipitation 7.27 5.14  
Snow  
Snow 0.00 in - - ()
Month to date snowfall 11.9  
Since 1 July snowfall 40.4  
Snow Depth 0.00 in    
Sea Level Pressure  
Sea Level Pressure 29.91 in    
Wind  
Wind Speed 3 mph (WNW)    
Max Wind Speed 14 mph    
Max Gust Speed 18 mph    
Visibility 7 miles    
Events Fog , Rain    
T = Trace of Precipitation, MM = Missing Value Source: NWS Daily Summary

Daily Weather History Graph

Daily Weather History Graph

Search for Another Location

Airport:

Trip Planner

Search our weather history database for the weather conditions in past years. The results will help you decide how hot, cold, wet, or windy it might be!

Date:

Astronomy

Feb. 23, 2013 Rise Set
Actual Time 7:03 AM EST 6:13 PM EST
Civil Twilight 6:37 AM EST 6:39 PM EST
Nautical Twilight 6:07 AM EST 7:09 PM EST
Astronomical Twilight 5:36 AM EST 7:39 PM EST
Moon 4:23 PM EST (2/23) 5:23 AM EST (2/23)
Length of Visible Light 12h 02m
Length of Day
11h 09m
Waxing Gibbous, 95% of the Moon is Illuminated
Feb 23
Waxing Gibbous
Feb 25
Full
Mar 4
Last Quarter
Mar 11
New
Mar 19
First Quarter

Hourly Weather History & Observations

Time (EST) Temp. Windchill Dew Point Humidity Pressure Visibility Wind Dir Wind Speed Gust Speed Precip Events Conditions
12:04 AM 37.4 °F - 33.8 °F 87% 30.00 in 9.0 mi Calm Calm - N/A   Overcast
12:52 AM 37.0 °F 34.5 °F 33.1 °F 86% 30.03 in 9.0 mi ESE 3.5 mph - N/A   Scattered Clouds
1:52 AM 37.0 °F 34.5 °F 33.1 °F 86% 29.98 in 10.0 mi ENE 3.5 mph - N/A   Scattered Clouds
2:41 AM 35.6 °F 32.8 °F 33.8 °F 93% 29.98 in 10.0 mi East 3.5 mph - N/A   Overcast
2:52 AM 36.0 °F 33.3 °F 32.0 °F 86% 29.98 in 10.0 mi East 3.5 mph - N/A   Overcast
3:52 AM 37.0 °F - 33.1 °F 86% 29.97 in 10.0 mi Calm Calm - N/A   Overcast
4:20 AM 37.4 °F - 33.8 °F 87% 29.98 in 10.0 mi Calm Calm - N/A   Overcast
4:52 AM 37.9 °F - 33.1 °F 83% 29.98 in 6.0 mi Calm Calm - 0.01 in Rain Light Rain
5:09 AM 37.4 °F - 33.8 °F 87% 29.97 in 7.0 mi Calm Calm - 0.00 in Rain Light Rain
5:52 AM 37.0 °F - 34.0 °F 89% 29.97 in 6.0 mi Calm Calm - 0.00 in   Overcast
6:09 AM 37.4 °F - 33.8 °F 87% 29.94 in 4.0 mi Calm Calm - N/A   Mostly Cloudy
6:14 AM 37.4 °F 34.9 °F 33.8 °F 87% 29.94 in 2.5 mi ESE 3.5 mph - N/A   Mostly Cloudy
6:21 AM 37.4 °F - 33.8 °F 87% 29.94 in 1.0 mi Calm Calm - N/A   Mostly Cloudy
6:23 AM 37.4 °F - 33.8 °F 87% 29.94 in 0.8 mi Calm Calm - N/A   Mostly Cloudy
6:30 AM 37.4 °F 34.9 °F 33.8 °F 87% 29.94 in 0.5 mi SE 3.5 mph - N/A Fog Fog
6:52 AM 36.0 °F - 34.0 °F 93% 29.95 in 0.5 mi Calm Calm - N/A Fog Fog
7:42 AM 35.6 °F - 33.8 °F 93% 29.93 in 0.2 mi Calm Calm - N/A Fog Fog
7:52 AM 37.0 °F - 34.0 °F 89% 29.96 in 0.5 mi Calm Calm - N/A Fog Fog
8:24 AM 37.4 °F 34.9 °F 33.8 °F 87% 29.93 in 1.2 mi SE 3.5 mph - N/A   Overcast
8:42 AM 37.4 °F - 35.6 °F 93% 29.93 in 2.5 mi Calm Calm - N/A   Overcast
8:49 AM 37.4 °F - 35.6 °F 93% 29.93 in 3.0 mi Calm Calm - N/A   Overcast
8:52 AM 37.9 °F - 35.1 °F 89% 29.94 in 4.0 mi Calm Calm - N/A   Overcast
9:52 AM 43.0 °F - 39.0 °F 86% 29.92 in 9.0 mi Calm Calm - N/A   Overcast
10:52 AM 46.0 °F 44.8 °F 41.0 °F 83% 29.93 in 10.0 mi Variable 3.5 mph - N/A   Overcast
11:45 AM 48.2 °F - 42.8 °F 82% 29.91 in 10.0 mi WNW 6.9 mph - N/A   Overcast
11:52 AM 48.9 °F - 41.0 °F 74% 29.91 in 10.0 mi NNW 8.1 mph - N/A   Overcast
12:22 PM 51.8 °F - 39.2 °F 62% 29.90 in 10.0 mi West 8.1 mph - N/A   Scattered Clouds
12:52 PM 53.1 °F - 39.0 °F 59% 29.88 in 10.0 mi NW 9.2 mph - N/A   Partly Cloudy
1:30 PM 57.2 °F - 39.2 °F 51% 29.86 in 10.0 mi Variable 4.6 mph - N/A   Mostly Cloudy
1:48 PM 55.4 °F - 37.4 °F 51% 29.85 in 10.0 mi NW 6.9 mph - N/A   Scattered Clouds
1:52 PM 54.0 °F - 37.9 °F 55% 29.84 in 10.0 mi NW 3.5 mph - N/A   Partly Cloudy
2:52 PM 57.0 °F - 36.0 °F 45% 29.83 in 10.0 mi WSW 9.2 mph - N/A   Scattered Clouds
3:52 PM 57.0 °F - 36.0 °F 45% 29.83 in 10.0 mi NNW 4.6 mph - N/A   Mostly Cloudy
4:52 PM 55.9 °F - 35.1 °F 45% 29.82 in 10.0 mi Calm Calm - N/A   Mostly Cloudy
5:52 PM 54.0 °F - 34.0 °F 47% 29.81 in 10.0 mi Calm Calm - N/A   Scattered Clouds
6:52 PM 53.1 °F - 34.0 °F 48% 29.81 in 10.0 mi Calm Calm - N/A   Clear
7:52 PM 51.1 °F - 37.0 °F 59% 29.82 in 10.0 mi West 4.6 mph - N/A   Partly Cloudy
8:52 PM 50.0 °F - 36.0 °F 59% 29.81 in 10.0 mi West 3.5 mph - N/A   Clear
9:52 PM 46.9 °F - 35.1 °F 63% 29.81 in 10.0 mi WNW 5.8 mph - N/A   Clear
10:52 PM 45.0 °F 42.6 °F 35.1 °F 68% 29.83 in 10.0 mi West 4.6 mph - N/A   Overcast
11:34 PM 44.6 °F 41.4 °F 33.8 °F 66% 29.84 in 10.0 mi West 5.8 mph - N/A   Overcast
11:52 PM 45.0 °F 42.6 °F 34.0 °F 65% 29.82 in 10.0 mi WNW 4.6 mph - N/A   Overcast